Weather History for West Palm Beach, FL

Change the Weather History Date:

Saturday, August 17, 2013

  Actual Average Record
Temperature  
Mean Temperature 88 °F 83 °F  
Max Temperature 92 °F 90 °F 97 °F (1938)
Min Temperature 84 °F 76 °F 68 °F (1920)
Degree Days  
Heating Degree Days 0 0  
Month to date heating degree days 0 0  
Since 1 June heating degree days 0 0  
Since 1 July heating degree days 0 0  
Cooling Degree Days 23 18  
Month to date cooling degree days 349 306  
Year to date cooling degree days 2599 2454  
Since 1 June cooling degree days 1414 1345  
Growing Degree Days 38 (Base 50)    
Moisture  
Dew Point 75 °F    
Average Humidity 65    
Maximum Humidity 74    
Minimum Humidity 56    
Precipitation  
Precipitation 0.03 in 0.26 in 2.87 in (1956)
Month to date precipitation 2.79 4.17  
Year to date precipitation 46.31 36.94  
Snow  
Snow 0.00 in - - ()
Month to date snowfall 0.0  
Since 1 June snowfall 0.0  
Since 1 July snowfall 0.0  
Snow Depth 0.00 in    
Sea Level Pressure  
Sea Level Pressure 30.04 in    
Wind  
Wind Speed 11 mph (ESE)    
Max Wind Speed 18 mph    
Max Gust Speed 24 mph    
Visibility 10 miles    
Events      
T = Trace of Precipitation, MM = Missing Value Source: NWS Daily Summary

Daily Weather History Graph

Daily Weather History Graph

Search for Another Location

Airport:

Trip Planner

Search our weather history database for the weather conditions in past years. The results will help you decide how hot, cold, wet, or windy it might be!

Date:

Astronomy

Aug. 17, 2013 Rise Set
Actual Time 6:53 AM EDT 7:55 PM EDT
Civil Twilight 6:29 AM EDT 8:19 PM EDT
Nautical Twilight 6:00 AM EDT 8:47 PM EDT
Astronomical Twilight 5:31 AM EDT 9:16 PM EDT
Moon 5:00 PM EDT (8/17) 3:05 AM EDT (8/17)
Length of Visible Light 13h 50m
Length of Day
13h 01m
Waxing Gibbous, 84% of the Moon is Illuminated
Aug 17
Waxing Gibbous
Aug 20
Full
Aug 28
Last Quarter
Sep 5
New
Sep 12
First Quarter

Hourly Weather History & Observations

Time (EDT) Temp. Heat Index Dew Point Humidity Pressure Visibility Wind Dir Wind Speed Gust Speed Precip Events Conditions
12:53 AM 84.0 °F 91.9 °F 75.0 °F 74% 30.04 in 10.0 mi SE 4.6 mph - N/A   Scattered Clouds
1:53 AM 84.0 °F 92.6 °F 75.9 °F 76% 30.04 in 10.0 mi SE 6.9 mph - N/A   Scattered Clouds
2:53 AM 84.0 °F 92.6 °F 75.9 °F 76% 30.03 in 10.0 mi SE 5.8 mph - N/A   Scattered Clouds
3:53 AM 84.0 °F 91.9 °F 75.0 °F 74% 30.01 in 10.0 mi ESE 5.8 mph - N/A   Scattered Clouds
4:53 AM 84.0 °F 91.9 °F 75.0 °F 74% 30.02 in 10.0 mi ESE 8.1 mph - N/A   Partly Cloudy
5:53 AM 84.0 °F 91.9 °F 75.0 °F 74% 30.02 in 10.0 mi ESE 8.1 mph - N/A   Partly Cloudy
6:53 AM 84.0 °F 91.9 °F 75.0 °F 74% 30.02 in 10.0 mi SE 9.2 mph - N/A   Mostly Cloudy
7:53 AM 86.0 °F 95.1 °F 75.0 °F 70% 30.04 in 10.0 mi SE 9.2 mph - N/A   Mostly Cloudy
8:53 AM 88.0 °F 97.5 °F 75.0 °F 65% 30.06 in 10.0 mi SE 11.5 mph - N/A   Mostly Cloudy
9:53 AM 89.1 °F 100.2 °F 75.9 °F 65% 30.06 in 10.0 mi ESE 12.7 mph - N/A   Mostly Cloudy
10:25 AM 89.6 °F 99.8 °F 75.2 °F 62% 30.07 in 10.0 mi ESE 10.4 mph - N/A   Mostly Cloudy
10:53 AM 89.1 °F 99.1 °F 75.0 °F 63% 30.07 in 10.0 mi ESE 15.0 mph - N/A   Mostly Cloudy
11:40 AM 87.8 °F 97.6 °F 75.2 °F 66% 30.08 in 10.0 mi ESE 16.1 mph - 0.03 in   Mostly Cloudy
11:53 AM 89.1 °F 100.2 °F 75.9 °F 65% 30.08 in 10.0 mi ESE 15.0 mph - 0.03 in   Mostly Cloudy
12:53 PM 91.0 °F 100.4 °F 73.9 °F 57% 30.06 in 10.0 mi East 15.0 mph - N/A   Scattered Clouds
1:53 PM 90.0 °F 99.0 °F 73.9 °F 59% 30.04 in 10.0 mi ESE 15.0 mph 23.0 mph N/A   Scattered Clouds
2:53 PM 91.0 °F 101.6 °F 75.0 °F 59% 30.03 in 10.0 mi SE 15.0 mph - N/A   Mostly Cloudy
3:53 PM 90.0 °F 99.0 °F 73.9 °F 59% 30.02 in 10.0 mi SE 16.1 mph - N/A   Mostly Cloudy
4:53 PM 90.0 °F 99.0 °F 73.9 °F 59% 30.01 in 10.0 mi ESE 11.5 mph - N/A   Mostly Cloudy
5:53 PM 89.1 °F 99.1 °F 75.0 °F 63% 30.01 in 10.0 mi ESE 11.5 mph - N/A   Scattered Clouds
6:53 PM 88.0 °F 96.5 °F 73.9 °F 63% 30.03 in 10.0 mi ESE 11.5 mph - N/A   Scattered Clouds
7:53 PM 86.0 °F 93.8 °F 73.9 °F 67% 30.04 in 10.0 mi East 10.4 mph - N/A   Scattered Clouds
8:53 PM 86.0 °F 93.0 °F 73.0 °F 65% 30.06 in 10.0 mi East 9.2 mph - N/A   Scattered Clouds
9:53 PM 86.0 °F 95.1 °F 75.0 °F 70% 30.07 in 10.0 mi East 9.2 mph - N/A   Scattered Clouds
10:53 PM 84.9 °F 91.4 °F 73.0 °F 67% 30.09 in 10.0 mi East 8.1 mph - N/A   Scattered Clouds
11:53 PM 84.9 °F 91.4 °F 73.0 °F 67% 30.08 in 10.0 mi ESE 11.5 mph - N/A   Scattered Clouds